Location: Vancouver
(49.2827°N, 123.1207°W)
Time: 02:49:10
(UTC-07:00)

Envisat - Pass Details

Date: 23 May 2024
Orbit: 762 x 764 km, 98.3° (Epoch: 19 June)

Event Time Altitude Azimuth Distance (km) Brightness Sun altitude
Rises 04:31:31 0° 15° (NNE) 3,240 7.4 -6.9°
Reaches altitude 10° 04:33:51 10° 18° (NNE) 2,310 6.6 -6.6°
Maximum altitude 04:38:56 73° 103° (ESE) 801 3.3 -6.0°
Drops below altitude 10° 04:43:59 10° 188° (S) 2,291 5.0 -5.3°
Sets 04:46:17 0° 191° (S) 3,213 5.7 -5.1°
